IZ1REU Weather Reports


time (UTC)temp
C
wind
direction
speed
KPH
gust
KPH
rain 1hr
cm
rain 24hr
cm
rain mn
cm
humidity
%
barometer
mb
20260506014530 14 319 8.0 12.9 0.84 3.56 0.00 88 1008.8
20260506014032 15 14 3.2 11.3 0.76 3.53 0.00 88 1008.8
20260506013532 15 333 1.6 11.3 0.71 3.48 0.00 89 1008.9
20260506013032 16 327 8.0 8.0 0.56 3.35 0.00 89 1009.1
20260506012529 16 246 3.2 11.3 0.46 3.23 0.00 89 1009.2
20260506012029 16 259 4.8 9.7 0.36 3.15 0.00 88 1008.9
20260506011532 16 242 6.4 6.4 0.30 3.10 0.00 88 1008.9
20260506011029 16 248 3.2 11.3 0.13 2.92 0.00 88 1008.7
20260506010529 16 246 4.8 6.4 0.08 2.87 0.00 88 1008.5
20260506010029 16 261 3.2 4.8 0.08 2.87 0.00 88 1008.5
20260506005536 16 119 1.6 3.2 0.08 2.90 0.00 88 1008.5
20260506005029 16 115 0.0 3.2 0.05 2.90 0.00 88 1008.5
20260506004529 16 117 1.6 8.0 0.03 2.90 0.00 88 1008.7
20260506004029 16 119 1.6 8.0 0.03 2.90 0.00 87 1008.8
20260506003538 16 58 1.6 11.3 0.03 2.90 0.00 88 1008.9
20260506003029 16 162 0.0 20.9 0.03 2.90 0.00 88 1008.8
20260506002529 16 140 8.0 17.7 0.03 2.90 0.00 88 1008.7
20260506002035 16 319 0.0 1.6 0.03 2.90 0.00 87 1008.5
20260506001532 16 319 0.0 0.0 0.00 2.87 0.00 87 1008.4
20260506001032 16 319 0.0 0.0 0.00 2.87 0.00 87 1008.6
20260506000535 16 319 0.0 6.4 0.00 2.84 0.00 87 1008.6
20260506000032 16 316 4.8 4.8 0.00 2.84 0.00 87 1008.7
20260505235535 16 301 4.8 4.8 0.00 2.84 0.00 87 1008.9
20260505235033 17 306 0.0 4.8 0.00 2.84 0.00 87 1008.8
20260505234530 17 306 4.8 6.4 0.00 2.84 0.00 88 1009.0
20260505234032 17 128 0.0 3.2 0.00 2.84 0.00 88 1009.3
20260505233529 17 127 0.0 3.2 0.00 2.84 0.00 87 1009.4
20260505233029 17 112 0.0 4.8 0.00 2.84 0.00 87 1009.4
20260505232532 17 117 1.6 8.0 0.00 2.84 0.00 87 1009.5
20260505232029 17 98 0.0 3.2 0.00 2.84 0.00 87 1009.7
20260505231532 17 98 0.0 3.2 0.00 2.84 0.00 86 1009.7
20260505231029 17 170 1.6 3.2 0.00 2.84 0.00 86 1009.8
20260505230530 17 184 0.0 3.2 0.00 2.84 0.00 86 1009.8
20260505230029 17 184 0.0 3.2 0.00 2.84 0.00 86 1009.9
20260505225529 17 183 0.0 4.8 0.00 2.84 0.00 86 1009.9
20260505225029 17 183 0.0 3.2 0.00 2.84 0.00 86 1009.8
20260505224535 17 182 3.2 3.2 0.00 2.84 0.00 86 1009.9
20260505224038 17 186 0.0 6.4 0.00 2.84 0.00 86 1010.0
20260505223533 17 148 3.2 8.0 0.00 2.84 0.00 86 1010.1
20260505223029 17 213 3.2 12.9 0.00 2.84 0.00 86 1010.2
20260505222533 17 169 1.6 6.4 0.00 2.84 0.00 86 1010.2
20260505222029 17 142 3.2 19.3 0.00 2.84 0.00 86 1010.3
20260505221529 17 63 9.7 19.3 0.00 2.84 0.00 86 1010.3
20260505221032 17 117 4.8 6.4 0.00 2.84 0.00 86 1010.2
20260505220532 17 157 1.6 3.2 0.00 2.84 0.00 86 1010.2
20260505220029 17 123 3.2 9.7 0.00 2.84 0.00 86 1010.2
20260505215538 17 145 1.6 9.7 0.00 2.84 0.00 86 1010.2
20260505215035 17 121 1.6 6.4 0.00 2.84 0.00 86 1010.2
20260505214529 17 171 3.2 4.8 0.00 2.84 0.00 86 1010.3
20260505214032 17 92 0.0 8.0 0.00 2.84 0.00 86 1010.4
20260505213529 17 160 0.0 9.7 0.00 2.84 0.00 86 1010.5
20260505213035 17 164 3.2 8.0 0.00 2.84 0.00 86 1010.5
20260505212529 17 144 8.0 12.9 0.00 2.84 0.00 86 1010.6
20260505212029 17 168 3.2 6.4 0.00 2.84 0.00 85 1010.5
20260505211532 17 158 3.2 6.4 0.00 2.84 0.00 85 1010.6
20260505211032 17 114 0.0 6.4 0.00 2.84 0.00 85 1010.6
20260505210529 17 141 6.4 6.4 0.00 2.84 0.00 85 1010.6
20260505210029 17 153 0.0 4.8 0.00 2.84 0.00 85 1010.7
20260505205529 17 144 3.2 8.0 0.00 2.84 0.00 85 1010.8
20260505205029 17 112 3.2 8.0 0.00 2.84 0.00 85 1010.8
20260505204529 17 115 3.2 9.7 0.00 2.84 0.00 85 1010.8
20260505204035 17 71 1.6 8.0 0.00 2.84 0.00 85 1010.8
20260505203529 17 142 0.0 3.2 0.00 2.84 0.00 84 1010.9
20260505203029 17 158 0.0 3.2 0.00 2.84 0.00 84 1010.9
20260505202529 17 165 0.0 4.8 0.00 2.84 0.00 84 1010.9
20260505202033 17 132 1.6 6.4 0.00 2.84 0.00 84 1011.0
20260505201530 17 168 1.6 9.7 0.00 2.84 0.00 84 1011.0
20260505201035 17 170 1.6 8.0 0.00 2.84 0.00 84 1010.9
20260505200535 17 168 3.2 8.0 0.00 2.84 0.00 84 1010.9
20260505200032 17 133 0.0 4.8 0.00 2.84 0.00 84 1010.9
20260505195532 17 134 3.2 8.0 0.00 2.84 0.00 84 1010.9
20260505195035 17 151 1.6 9.7 0.00 2.84 0.00 84 1011.0
20260505194529 17 175 1.6 11.3 0.00 2.84 0.00 84 1011.0
20260505194035 17 173 3.2 9.7 0.00 2.84 0.00 84 1011.0
20260505193532 17 147 3.2 8.0 0.00 2.84 0.00 84 1010.9
20260505193029 17 181 1.6 4.8 0.00 2.84 0.00 84 1010.8
20260505192529 17 171 0.0 6.4 0.00 2.84 0.00 84 1010.8
20260505192029 17 167 4.8 8.0 0.00 2.84 0.00 84 1010.8
20260505191529 17 194 3.2 9.7 0.00 2.84 0.00 83 1010.8
20260505191029 17 150 1.6 6.4 0.00 2.84 0.00 83 1010.8
20260505190535 17 150 1.6 8.0 0.00 2.84 0.00 83 1010.6
20260505190032 17 131 0.0 11.3 0.00 2.84 0.00 83 1010.6
20260505185532 17 162 0.0 6.4 0.00 2.84 0.00 83 1010.5
20260505185029 17 159 1.6 6.4 0.00 2.84 0.00 83 1010.5
20260505184532 17 156 3.2 6.4 0.00 2.84 0.00 83 1010.6
20260505184029 17 205 1.6 8.0 0.00 2.84 0.00 83 1010.6
20260505183532 17 159 3.2 9.7 0.00 2.84 0.00 82 1010.7
20260505183029 17 124 3.2 11.3 0.00 2.84 0.00 82 1010.7
20260505182529 17 130 0.0 11.3 0.00 2.84 0.00 82 1010.7
20260505182032 17 101 0.0 11.3 0.00 2.84 0.00 82 1010.8
20260505181532 17 159 1.6 8.0 0.00 2.84 0.00 82 1010.7
20260505181029 17 251 1.6 8.0 0.00 2.84 0.00 81 1010.8
20260505180529 17 154 3.2 11.3 0.00 2.84 0.00 81 1010.7
20260505180029 17 230 4.8 6.4 0.00 2.84 0.00 84 1010.7
20260505175529 17 278 0.0 9.7 0.00 2.84 0.00 83 1010.6
20260505175029 18 129 4.8 6.4 0.00 2.84 0.00 83 1010.6
20260505174529 18 234 1.6 8.0 0.00 2.84 0.00 82 1010.6
20260505174029 18 134 0.0 12.9 0.00 2.84 0.00 82 1010.6
20260505173529 18 139 4.8 4.8 0.00 2.84 0.00 81 1010.6
20260505173032 18 119 0.0 9.7 0.00 2.84 0.00 80 1010.6
20260505172529 18 134 3.2 4.8 0.00 2.84 0.00 81 1010.5
20260505172032 18 323 0.0 6.4 0.00 2.84 0.00 83 1010.5
20260505171529 18 136 0.0 8.0 0.00 2.84 0.00 82 1010.5
20260505171029 18 128 4.8 12.9 0.00 2.84 0.00 82 1010.5
20260505170529 18 144 1.6 12.9 0.00 2.84 0.00 82 1010.6
20260505170032 18 275 1.6 11.3 0.00 2.84 0.00 82 1010.6
20260505165529 18 116 1.6 9.7 0.00 2.84 0.00 82 1010.6
20260505165029 18 289 0.0 8.0 0.00 2.84 0.00 83 1010.7
20260505164529 18 118 1.6 11.3 0.00 2.84 0.00 82 1010.7
20260505164029 18 135 3.2 12.9 0.00 2.84 0.00 82 1010.7
20260505163538 18 142 4.8 12.9 0.00 2.84 0.00 82 1010.6
20260505163032 18 135 12.9 12.9 0.00 2.84 0.00 82 1010.7
20260505162532 18 139 8.0 8.0 0.00 2.84 0.00 81 1010.6
20260505162029 18 134 0.0 11.3 0.00 2.84 0.00 81 1010.6
20260505161529 18 123 4.8 17.7 0.00 2.84 0.00 80 1010.6
20260505161029 18 125 3.2 12.9 0.00 2.84 0.00 80 1010.6
20260505160532 18 140 0.0 14.5 0.00 2.84 0.00 79 1010.6
20260505153032 19 275 0.0 14.5 0.00 2.84 0.00 79 1010.7
20260505152529 18 233 4.8 12.9 0.00 2.84 0.00 79 1010.9
20260505152032 18 133 6.4 11.3 0.00 2.84 0.00 80 1010.9
20260505151529 18 128 1.6 8.0 0.00 2.84 0.00 79 1011.0
20260505151032 18 151 0.0 8.0 0.00 2.84 0.00 79 1010.9
20260505150529 18 259 0.0 14.5 0.00 2.84 0.00 79 1010.8
20260505140529 19 121 3.2 16.1 0.00 2.84 0.00 78 1010.8
20260505125032 20 268 0.0 8.0 0.00 2.84 0.00 73 1010.9
20260505124529 19 154 3.2 8.0 0.00 2.84 0.00 73 1010.9
20260505124029 19 132 3.2 14.5 0.00 2.84 0.00 74 1010.9
20260505123529 19 130 1.6 11.3 0.00 2.84 0.00 74 1010.9
20260505123032 19 143 1.6 4.8 0.00 2.84 0.00 75 1010.9
20260505122532 18 123 1.6 8.0 0.00 2.84 0.00 75 1011.0
20260505122029 18 101 1.6 8.0 0.00 2.84 0.00 75 1011.0
20260505121529 18 96 0.0 4.8 0.00 2.84 0.00 74 1011.0
20260505121035 18 109 3.2 6.4 0.00 2.84 0.00 75 1010.9
20260505120535 18 355 0.0 4.8 0.00 2.84 0.00 75 1010.9
20260505120029 18 304 0.0 4.8 0.00 2.84 0.00 76 1010.9
20260505115529 18 307 1.6 3.2 0.00 2.84 0.00 76 1011.0
20260505115032 18 308 3.2 8.0 0.00 2.84 0.00 75 1011.0
20260505114538 17 325 0.0 6.4 0.00 2.84 0.00 76 1011.0
20260505114032 17 49 4.8 11.3 0.00 2.84 0.00 77 1011.0
20260505113535 17 16 11.3 16.1 0.00 2.84 0.00 77 1010.9
20260505113029 17 331 3.2 12.9 0.00 2.84 0.00 77 1011.0
20260505112532 17 37 8.0 8.0 0.00 2.84 0.00 78 1011.0
20260505112029 17 345 4.8 8.0 0.00 2.84 0.00 77 1011.1
20260505111529 17 14 6.4 14.5 0.00 2.84 0.00 78 1011.1
20260505111029 16 340 8.0 12.9 0.00 2.84 0.00 77 1011.2
20260505110529 16 344 4.8 14.5 0.00 2.84 0.00 77 1011.1
20260505102032 15 338 4.8 17.7 0.00 2.84 0.00 83 1011.2
20260505101529 15 82 4.8 22.5 0.00 2.84 0.00 83 1011.2
20260505101029 15 5 14.5 20.9 0.00 2.84 0.00 84 1011.1
20260505100532 15 321 6.4 19.3 0.00 2.84 0.00 84 1011.1
20260505100029 15 32 14.5 17.7 0.00 2.84 0.00 84 1011.1
20260505095529 15 324 6.4 14.5 0.00 2.84 0.00 84 1011.1
20260505095029 15 0 14.5 14.5 0.00 2.84 0.00 84 1011.2
20260505094532 15 46 4.8 14.5 0.00 2.84 0.00 83 1011.1
20260505094035 15 312 8.0 20.9 0.00 2.84 0.00 83 1011.1
20260505093535 15 5 4.8 14.5 0.00 2.84 0.00 83 1011.1
20260505093032 15 315 3.2 16.1 0.00 2.84 0.00 83 1011.1
20260505092529 15 319 4.8 12.9 0.00 2.84 0.00 83 1011.0
20260505092035 15 306 4.8 16.1 0.00 2.84 0.00 82 1010.9
20260505091529 15 290 12.9 14.5 0.00 2.84 0.00 82 1010.8
20260505091035 15 13 3.2 16.1 0.00 2.84 0.00 82 1010.8
20260505090529 15 345 1.6 16.1 0.00 2.84 0.00 82 1010.9
20260505090032 15 18 6.4 16.1 0.00 2.84 0.00 82 1010.9
20260505085529 15 355 3.2 12.9 0.00 2.84 0.00 82 1010.9
20260505085029 15 355 1.6 17.7 0.00 2.84 0.00 82 1010.9
20260505084529 15 79 8.0 14.5 0.00 2.84 0.00 82 1010.9
20260505084029 15 283 3.2 16.1 0.00 2.84 0.00 82 1010.7
20260505083532 15 35 6.4 11.3 0.00 2.84 0.00 82 1010.7
20260505083029 15 331 3.2 16.1 0.00 2.84 0.00 82 1010.7
20260505082533 15 355 12.9 16.1 0.00 2.84 0.00 83 1010.6
20260505082029 15 303 3.2 8.0 0.00 2.84 0.00 83 1010.6
20260505081529 15 341 4.8 9.7 0.00 2.84 0.00 83 1010.6
20260505081029 15 294 1.6 6.4 0.00 2.84 0.00 83 1010.7
20260505080532 15 64 3.2 9.7 0.00 2.84 0.00 84 1010.7
20260505080035 14 31 3.2 17.7 0.00 2.84 0.00 84 1010.5
20260505075529 14 321 6.4 17.7 0.00 2.84 0.00 84 1010.3
20260505075032 14 22 8.0 17.7 0.00 2.84 0.00 85 1010.4
20260505074532 14 30 16.1 16.1 0.00 2.84 0.00 85 1010.5
20260505074029 14 52 3.2 17.7 0.00 2.84 0.00 85 1010.6
20260505073535 14 338 4.8 20.9 0.00 2.84 0.00 85 1010.6
20260505073029 14 5 4.8 14.5 0.00 2.84 0.00 86 1010.7
20260505072529 14 331 8.0 14.5 0.00 2.84 0.00 86 1010.7
20260505072029 14 294 1.6 14.5 0.03 2.84 0.00 87 1010.6
20260505071529 13 33 8.0 14.5 0.08 2.84 0.00 87 1010.6
20260505071032 13 62 0.0 8.0 0.10 2.84 0.00 87 1010.8
20260505070532 13 163 3.2 9.7 0.13 2.84 0.00 87 1010.7
20260505070032 13 30 6.4 17.7 0.18 2.84 0.00 87 1010.6
20260505065529 13 34 12.9 17.7 0.18 2.84 0.00 87 1010.5
20260505065029 13 30 8.0 19.3 0.23 2.84 0.00 87 1010.4
20260505064535 13 317 6.4 19.3 0.28 2.84 0.00 88 1010.4
20260505064029 13 302 3.2 19.3 0.33 2.84 0.00 88 1010.3
20260505063529 13 30 4.8 16.1 0.43 2.84 0.00 88 1010.2
20260505063032 13 42 6.4 19.3 0.46 2.82 0.00 88 1010.2
20260505062529 13 12 12.9 24.1 0.56 2.82 0.00 88 1010.0
20260505062035 13 46 9.7 19.3 0.64 2.82 0.00 88 1009.7
20260505061529 13 15 11.3 29.0 0.66 2.77 0.00 88 1009.9
20260505061038 13 350 4.8 17.7 0.69 2.72 0.00 88 1009.9
20260505060538 13 296 6.4 17.7 0.69 2.72 0.00 88 1009.7
20260505060038 13 37 14.5 24.1 0.66 2.67 0.00 89 1009.5
20260505055538 13 59 14.5 27.4 0.66 2.64 0.00 89 1009.3
20260505055032 13 346 12.9 35.4 0.64 2.62 0.00 90 1009.2
20260505054529 13 27 12.9 30.6 0.64 2.57 0.00 90 1009.3
20260505054029 13 51 9.7 30.6 0.61 2.51 0.00 90 1009.4
20260505053532 13 36 9.7 20.9 0.56 2.41 0.00 90 1010.2
20260505053029 13 350 8.0 17.7 0.64 2.34 0.00 90 1010.4
20260505052532 13 42 16.1 17.7 0.64 2.24 0.00 90 1010.3
20260505052038 13 13 8.0 17.7 0.64 2.16 0.00 90 1010.2
20260505051535 13 19 6.4 16.1 0.69 2.08 0.00 90 1010.0
20260505051032 13 99 3.2 17.7 0.74 2.03 0.00 90 1010.1
20260505050538 13 320 12.9 20.9 0.79 2.01 0.00 90 1010.0
20260505041529 13 308 1.6 4.8 0.84 1.40 0.00 92 1010.1
20260505041032 13 310 1.6 9.7 0.81 1.30 0.00 92 1010.2
20260505040532 13 292 3.2 4.8 0.74 1.22 0.00 91 1010.0
20260505040032 13 76 0.0 6.4 0.71 1.14 0.00 91 1010.0
20260505035532 13 311 3.2 6.4 0.56 0.97 0.00 91 1010.3
20260505035029 13 330 1.6 8.0 0.53 0.94 0.00 91 1009.9
20260505034529 13 33 0.0 14.5 0.48 0.89 0.00 91 1009.9
20260505034029 13 44 0.0 8.0 0.41 0.79 0.00 91 1010.0
20260505033535 13 287 1.6 8.0 0.36 0.74 0.00 91 1010.1
20260505033029 13 312 1.6 8.0 0.36 0.69 0.00 92 1010.2
20260505032532 14 325 1.6 4.8 0.36 0.66 0.00 92 1010.3
20260505032029 14 317 3.2 6.4 0.36 0.61 0.00 92 1010.4
20260505031529 14 313 4.8 6.4 0.30 0.56 0.00 91 1010.5
20260505031035 14 10 0.0 1.6 0.25 0.46 0.00 91 1010.6
20260505030529 14 322 0.0 3.2 0.25 0.46 0.00 91 1010.7
20260505030035 14 317 1.6 4.8 0.25 0.43 0.00 90 1010.9
20260505025529 14 319 0.0 3.2 0.23 0.41 0.00 90 1011.0
20260505025029 14 302 0.0 1.6 0.23 0.38 0.00 90 1011.1
20260505024532 14 319 0.0 1.6 0.23 0.38 0.00 90 1011.2
20260505024029 14 318 0.0 3.2 0.23 0.36 0.00 90 1011.2
20260505023529 14 319 0.0 3.2 0.20 0.36 0.00 91 1011.3
20260505023032 14 324 1.6 3.2 0.20 0.33 0.00 91 1011.4
20260505022529 15 287 0.0 1.6 0.18 0.28 0.00 91 1011.5
20260505022035 15 287 0.0 3.2 0.15 0.25 0.00 90 1011.6
20260505021535 14 321 1.6 6.4 0.13 0.23 0.00 90 1011.5
20260505021029 15 326 1.6 6.4 0.13 0.20 0.00 90 1011.6
20260505020535 15 305 0.0 1.6 0.10 0.18 0.00 90 1011.6
20260505020029 15 272 0.0 3.2 0.10 0.18 0.00 90 1011.6
20260505015529 15 9 1.6 4.8 0.13 0.18 0.00 89 1011.6
20260505015029 15 296 3.2 4.8 0.13 0.15 0.00 89 1011.7